Location: Sungai Dangang
(2.7500°N, 113.8333°E)
Time: 01:41:05
(UTC+00:00)

Ariane H10+ - Pass Details

Date: 02 October 2021
Orbit: 237 x 7755 km, 6.8° (Epoch: 21 October)

Event Time Altitude Azimuth Distance (km) Brightness Sun altitude
Exits shadow 17:03:14 14° 99° (E) 5,015 6.2 -77.6°
Drops below altitude 10° 17:05:36 10° 97° (E) 5,814 6.6 -77.0°
Sets 17:13:49 0° 92° (E) 8,340 7.5 -75.0°
